NLSK1: Solomon River, Niles, KS

                                SHEF ID:       NLSK1     SOLOMON R AT NILES, KS
STATION TYPE:

PRECIP STAGE RIV-FLOW BAT-LOAD
in ft cfs volt
Ccp-Rev Ccp-Rev Ccp-Rev Ccp-Rev
(America/Chicago)
08/08 00:00 0.00 4.65 137 11.78
08/08 01:00 0.00 4.65 137 11.74
08/08 02:00 0.00 4.65 137 11.71
08/08 03:00 0.00 4.64 136 11.68
08/08 04:00 0.00 4.64 136 11.66
08/08 05:00 0.00 4.64 136 11.65
08/08 06:00 0.00 4.63 135 11.63
08/08 07:00 0.00 4.63 135 11.61
08/08 08:00 0.00 4.62 134 11.60
08/08 09:00 0.00 4.62 134 11.65
08/08 10:00 0.00 4.62 134 12.04
08/08 11:00 0.00 4.62 134 12.23
08/08 12:00 0.00 4.60 132 12.34
08/08 13:00 0.00 4.62 134 12.53
08/08 14:00 0.00 4.61 133 12.47
08/08 15:00 0.00 4.61 133 12.39
08/08 16:00 0.00 4.61 133 12.37
08/08 17:00 0.00 4.60 132 12.32
08/08 18:00 0.00 4.59 131 12.31
08/08 19:00 0.00 4.58 130 11.96
08/08 20:00 0.00 4.58 130 11.87
08/08 21:00 0.00 4.56 128 11.81
08/08 22:00 0.00 4.56 128 11.77
08/08 23:00 0.00 4.50 123 11.77
Data processed at Sun 09Aug2026 04:41 GMT

NOTICE: If you are parsing this page

Please convert to using our Data API. Starting early 2026 we will be migrating to: https://water.usace.army.mil with modern pages rendered in JavaScript. When this migration completes you will no longer be able to scrape this page! CWMSDataAPI (CDA)

Timeseries IDs (TSIDs)

TSIDs used from left to right in the data table
NLSK.Precip-Inc.Total.1Hour.1Hour.Ccp-Rev
NLSK.Stage.Inst.1Hour.0.Ccp-Rev
NLSK.Flow.Inst.1Hour.0.Ccp-Rev
NLSK.Volt-Battery Load.Inst.1Hour.0.Ccp-Rev

                            

All information presented herein is the property of the government of the United States of America and may be revised or deleted at any time without prior notice. Dissemination of this information without the expressed written consent of the Public Affairs Office, Tulsa District U.S. Army Corps of Engineers is strictly prohibited. These data are gathered electronically and, as presented, have NOT undergone any form of quality control. These data are NOT guaranteed to be valid or correct.